Weather in Kazachinskoe

Russia / Krasnoyarsk Krai     57°41′44″N   93°16′31″E
temp.,
°C
wind,
m/s
gust,
m/s
humid.,
%
clouds,
%
prec.,
mm/h
press.,
hPa
HPBL,
m
17 october, sun
sun1701:000ssw00945 0.0 102910
04:00−1se119559 0.0 102910
07:00+1s119298 0.0 102916
10:00+3ese118389 0.0 102997
13:00+6e237555 0.0 1029378
16:00+6ese23775 0.0 1028150
19:00+2ese22935 0.0 102833
22:000ese11945 0.0 102813
18 october, mon
mon1801:000ese11945 0.0 102713
04:00−1ese119412 0.0 102614
07:00−1se119352 0.0 102613
10:00+3s24725 0.0 1025249
13:00+7ssw255642 0.0 1024679
16:00+6sw236787 0.0 102463
19:00+2sw2285100 0.0 102426
22:00+2sw2587100 0.0 1025108
19 october, tue
tue1901:00+2wsw268898 0.0 1025227
04:00+2sw2594100 0.0 1026164
07:00+2sw2692100 0.0 1026229
10:00+3sw2790100 0.1 1026338
13:00+5sw367869 0.1 1026449
16:00+7sw267195 0.0 1025376
19:00+4sw2687100 0.0 1026133
22:00+3ssw2689100 0.0 1026144
20 october, wed
wed2001:00+3ssw259167 0.0 1025115
04:00+2ssw239393 0.0 102558
07:00+1ssw259375 0.0 1025107
10:00+4sw267764 0.0 1025209
13:00+9ssw24585 0.0 1024466
16:00+9s22628 0.0 102350
19:00+5sse227698 0.0 102212
22:00+3sse117899 0.0 102211
21 october, thu
thu2101:00+2se1179100 0.0 102010
04:00+2se1180100 0.0 101911
07:00+1sse1182100 0.0 101811
10:00+3s1473100 0.0 1018131
13:00+8sw2456100 0.0 1016374
16:00+7s116493 0.0 101611
19:00+4ssw227869 0.0 101510
22:00+2s228281 0.0 101413